Simultaneous Nadir Overpasses (SNOs) Predictions

Prediction of SNOs between GOES-16 and METOP-B Satellite Orbit:

Table of predicted SNOs for the next 14.0 days since TLE Epoch: 10/31/2025
Index Date Time (GOES-16) GOES-16 Lat,Lon METOP-B Lat,Lon Distance(km) Time Diff (sec)
1 11/02/2025 04:14:48 -0.05,-104.66 -0.82,-108.13 395.67 80
2 11/03/2025 03:51:35 -0.05,-104.66 0.26,-103.16 170.36 80
3 11/04/2025 16:10:37 0.05,-104.71 0.76,-107.76 348.57 80
4 11/05/2025 15:52:44 0.05,-104.71 -0.39,-102.80 217.54 80
5 11/07/2025 04:11:53 -0.05,-104.65 -0.69,-107.43 316.81 80
6 11/08/2025 03:48:39 -0.06,-104.65 0.40,-102.46 248.91 80
7 11/09/2025 16:07:41 0.06,-104.69 0.61,-107.07 270.70 80
8 11/10/2025 15:49:48 0.07,-104.69 -0.49,-102.09 295.47 80
9 11/12/2025 04:08:57 -0.07,-104.64 -0.52,-106.73 238.17 80
10 11/13/2025 03:45:44 -0.07,-104.64 0.58,-101.76 328.03 80
11 11/14/2025 16:04:45 0.07,-104.69 0.47,-106.36 191.03 80
